Find Starlink 5609

NORAD ID: 55348 Int'l Des: 2023-013 Owner: SPXS Country: US Constellation: starlink operational
LEOCIRCULAR

实时位置

正在加载3D地球...

关于 Starlink 5609

正在加载描述...

即将过境

Passes for default location (London). Set your location on the main map for personalized predictions.

高度历史

Loading altitude history...

两行轨道根数

1 55348U 23013T 26123.99378994 .00001330 00000-0 57857-4 0 9999
2 55348 43.0013 350.8873 0001261 268.7454 91.3253 15.27571112180136
Epoch: May 3, 2026 • Age: 13 hours

当前状态

高度 484.8 km
速度 7.63 km/s
星下点 32.62°N, 20.97°W
发射日期 Jan 26, 2023
运行时间 3.2 years
类型 internet

技术详情

分类 Payload
质量 305.00 kg
干质量 290.00 kg
总质量 305.00 kg
长度 0.20 m
直径 2.80 m
跨度 9.00 m
形状 Box + pan
制造商 SPXS
平台类型 Starlink
阶段状态 In Orbit
所有者/国家 SPXS/US

Most Searched